Location: Rumah Apan
(2.7833°N, 113.9500°E)
Time: 00:09:46
(UTC+00:00)

Aurora 2 Rocket - Pass Details

Date: 25 July 2021
Orbit: 389 x 1736 km, 25.0° (Epoch: 22 September)

Event Time Altitude Azimuth Distance (km) Brightness Sun altitude
Rises 11:17:35 0° 243° (WSW) 3,428 7.1 -10.1°
Reaches altitude 10° 11:19:48 10° 243° (WSW) 2,663 6.4 -10.6°
Maximum altitude 11:26:30 89° 150° (SSE) 1,214 4.0 -12.1°
Drops below altitude 10° 11:36:00 10° 64° (ENE) 3,688 6.1 -14.4°
Enters shadow 11:39:34 - 64° (ENE) 4,813 6.7 -15.2°
Sets 11:39:34 0° 64° (ENE) 4,814 6.7 -15.2°
